Tracking 28799 objects as of 18-Apr-2024
HD Live streaming from Space Station
objects crossing your sky now

THORAD AGENA D DEB

Track THORAD AGENA D DEB now!
10-day predictions


NORAD ID: 4856
Int'l Code: 1970-025EL
Perigee: 758.1 km
Apogee: 982.3 km
Inclination: 99.8 °
Period: 102.2 minutes
Semi major axis: 7241 km
RCS: 0.025 m2 (small)
Launch date: April 8, 1970
Source: United States (US)
Launch site: AIR FORCE WESTERN TEST RANGE (AFWTR)

Note: This is SATELLITE DEBRIS
Your satellite tracking list
Your tracking list is empty




NASA's NSSDC Master Catalog

Two Line Element Set (TLE):
1 04856U 70025EL  24108.62127875  .00001071  00000-0  58140-3 0  9990
2 04856  99.7629 157.4050 0154834 331.0548  28.2097 14.08922171759013
Source of the keplerian elements: AFSPC